FW8246 Weather Reports


time (UTC)temp
F
wind
direction
speed
knots
gust
knots
rain 1hr
in
rain 24hr
in
rain mn
in
humidity
%
barometer
mb
20260504033051 44 0 0.0 0.0 0.00 0.00 0.00 90 1021.2
20260504031557 44 0 0.0 0.0 0.00 0.00 0.00 90 1021.3
20260504030052 45 0 0.0 0.0 0.00 0.00 0.00 89 1021.3
20260504024553 45 0 0.0 0.9 0.00 0.00 0.00 89 1021.4
20260504023059 46 0 0.0 0.9 0.00 0.00 0.00 90 1021.5
20260504021552 47 13 0.0 1.7 0.00 0.00 0.00 90 1021.5
20260504020053 47 29 0.0 2.6 0.00 0.00 0.00 90 1021.5
20260504014606 47 0 0.0 0.0 0.00 0.00 0.00 90 1021.5
20260504013058 47 0 0.0 1.7 0.00 0.00 0.00 90 1021.5
20260504011550 47 352 0.9 3.5 0.00 0.00 0.00 90 1021.5
20260504010055 47 0 0.0 0.0 0.00 0.00 0.00 90 1021.6
20260504004552 47 0 0.0 0.0 0.00 0.00 0.00 90 1021.5
20260504003058 47 0 0.0 0.0 0.00 0.00 0.00 89 1021.5
20260504001605 48 0 0.0 0.9 0.00 0.00 0.00 89 1021.4
20260504000124 48 0 0.0 0.9 0.00 0.00 0.00 88 1021.5
20260503234556 49 15 0.0 0.9 0.00 0.00 0.00 87 1021.7
20260503233050 49 0 0.0 1.7 0.00 0.00 0.00 88 1021.8
20260503231552 49 16 0.0 0.9 0.00 0.00 0.00 89 1021.8
20260503230059 48 0 0.0 0.9 0.00 0.00 0.00 89 1022.0
20260503224555 49 0 0.0 0.0 0.00 0.00 0.00 88 1022.2
20260503223058 49 0 0.0 1.7 0.00 0.00 0.00 88 1022.2
20260503221558 49 0 0.0 1.7 0.00 0.00 0.00 87 1022.1
20260503220058 50 0 0.0 1.7 0.00 0.00 0.00 86 1022.1
20260503214555 50 0 0.0 0.0 0.00 0.00 0.00 86 1022.1
20260503213052 50 0 0.0 0.0 0.00 0.00 0.00 85 1021.9
20260503211551 52 0 0.0 0.0 0.00 0.00 0.00 81 1021.8
20260503210049 54 0 0.0 1.7 0.00 0.00 0.00 79 1021.7
20260503204551 55 47 0.9 2.6 0.00 0.00 0.00 77 1021.5
20260503203048 55 85 0.0 3.5 0.00 0.00 0.00 77 1021.6
20260503201546 53 32 0.0 7.0 0.00 0.00 0.00 83 1021.5
20260503200051 52 0 0.0 0.9 0.00 0.00 0.00 84 1021.8
20260503194551 52 0 0.0 0.9 0.00 0.00 0.00 83 1021.8
20260503193104 53 0 0.0 0.9 0.00 0.00 0.00 82 1021.6
20260503191558 53 0 0.0 1.7 0.00 0.00 0.00 82 1021.5
20260503190053 53 0 0.0 1.7 0.00 0.00 0.00 82 1021.1
20260503184549 54 0 0.0 0.9 0.00 0.00 0.00 81 1021.0
20260503183106 55 0 0.0 0.0 0.00 0.00 0.00 81 1021.0
20260503181617 56 0 0.0 0.0 0.00 0.00 0.00 79 1020.8
20260503180054 57 0 0.0 0.0 0.00 0.00 0.00 76 1020.6
20260503174548 59 0 0.0 0.0 0.00 0.00 0.00 75 1020.4
20260503173056 61 0 0.0 0.0 0.00 0.00 0.00 70 1020.2
20260503171556 62 0 0.0 2.6 0.00 0.00 0.00 67 1020.1
20260503150106 68 273 0.9 6.1 0.00 0.00 0.00 54 1020.8
20260503100106 65 254 0.9 4.3 0.00 0.00 0.00 57 1022.4
20260503081550 61 0 0.9 3.5 0.00 0.00 0.00 59 1022.7
20260503071557 57 0 0.0 2.6 0.00 0.00 0.00 62 1023.2
20260503070109 56 0 0.0 2.6 0.00 0.00 0.00 65 1023.3
20260503060119 54 0 0.0 3.5 0.00 0.00 0.00 63 1022.9
20260503054546 52 0 0.0 5.2 0.00 0.00 0.00 66 1023.1
20260503053053 50 0 0.0 2.6 0.00 0.00 0.00 74 1023.2
20260503051551 47 0 0.0 0.0 0.00 0.00 0.00 83 1023.1
20260503050055 44 0 0.0 0.0 0.00 0.00 0.00 85 1023.0
20260503044548 43 0 0.0 0.0 0.00 0.00 0.00 85 1023.0
20260503043046 43 0 0.0 0.0 0.00 0.00 0.00 84 1022.9
20260503041549 43 0 0.0 2.6 0.00 0.00 0.00 84 1022.4
20260503040052 42 0 0.9 2.6 0.00 0.00 0.00 84 1022.5
20260503034601 44 10 0.0 0.9 0.00 0.00 0.00 80 1022.4